Simultaneous Nadir Overpasses (SNOs) Predictions

Prediction of SNOs between AQUA and NOAA-19 Satellite Orbit:

Table of predicted SNOs for the next 14.0 days since TLE Epoch: 2/19/2022
Index Date (AQUA) Time (AQUA) Lat,Lon (AQUA) SZA (AQUA ) Date (NOAA-19) Time (NOAA-19) Lat,Lon (NOAA-19) SZA (NOAA-19 ) Distance(km) Time Diff (sec)
1 02/20/2022 11:00:29 -77.99, 176.49 90.41 02/20/2022 11:00:20 -77.98, 176.54 90.41 1.05 9
2 02/22/2022 16:34:09 77.98, -86.89 88.78 02/22/2022 16:33:26 77.97, -86.73 88.77 3.73 43
3 02/22/2022 17:23:35 -77.99, 80.73 91.23 02/22/2022 17:24:22 -77.99, 80.62 91.24 2.49 47
4 02/24/2022 22:07:40 -77.64, 11.22 92.49 02/24/2022 22:06:34 -77.60, 8.06 92.25 75.49 66
5 02/24/2022 22:57:15 77.99, 177.30 87.95 02/24/2022 22:57:28 77.96, 177.25 87.92 4.00 13
6 02/27/2022 04:30:53 -77.97, -86.00 92.92 02/27/2022 04:30:27 -77.94, -85.98 92.94 2.86 26
7 02/27/2022 05:20:21 78.01, 81.43 87.13 02/27/2022 05:21:29 77.97, 81.43 87.07 4.15 68
8 03/01/2022 10:04:32 77.95, 10.67 86.21 03/01/2022 10:03:31 77.95, 10.86 86.22 4.43 61
9 03/01/2022 10:53:58 -77.95, 178.30 93.80 03/01/2022 10:54:28 -77.98, 178.29 93.79 2.71 30
10 03/03/2022 16:27:37 77.95, -85.07 85.33 03/03/2022 16:27:32 77.96, -84.99 85.34 2.55 5



Historial Predications of SNOs between AQUA and NOAA-19
